| time (UTC) | temp F | wind direction | speed MPH | gust MPH | rain 1hr in | rain 24hr in | rain mn in | humidity % | barometer mb |
| 20260504050732 | 42 | 207 | 0.0 | 1.0 | 0.00 | 0.00 | 0.00 | 70 | 1033.6 |
| 20260504050229 | 42 | 206 | 1.0 | 1.0 | 0.00 | 0.00 | 0.00 | 70 | 1033.5 |
| 20260504045726 | 42 | 188 | 1.0 | 1.0 | 0.00 | 0.00 | 0.00 | 70 | 1033.4 |
| 20260504045221 | 42 | 126 | 0.0 | 0.0 | 0.00 | 0.00 | 0.00 | 69 | 1033.6 |
| 20260504044719 | 42 | 126 | 0.0 | 0.0 | 0.00 | 0.00 | 0.00 | 69 | 1033.5 |
| 20260504044216 | 42 | 126 | 0.0 | 0.0 | 0.00 | 0.00 | 0.00 | 69 | 1033.4 |
| 20260504043713 | 42 | 126 | 0.0 | 0.0 | 0.00 | 0.00 | 0.00 | 69 | 1033.5 |
| 20260504043210 | 42 | 126 | 0.0 | 0.0 | 0.00 | 0.00 | 0.00 | 68 | 1033.2 |
| 20260504042708 | 42 | 126 | 0.0 | 0.0 | 0.00 | 0.00 | 0.00 | 68 | 1033.5 |
| 20260504042204 | 43 | 126 | 0.0 | 1.0 | 0.00 | 0.00 | 0.00 | 66 | 1033.3 |
| 20260504041700 | 43 | 125 | 0.0 | 0.0 | 0.00 | 0.00 | 0.00 | 65 | 1033.3 |
| 20260504041155 | 44 | 126 | 0.0 | 1.0 | 0.00 | 0.00 | 0.00 | 64 | 1033.2 |
| 20260504040653 | 44 | 125 | 1.0 | 1.0 | 0.00 | 0.00 | 0.00 | 63 | 1033.2 |
| 20260504040150 | 44 | 125 | 0.0 | 0.0 | 0.00 | 0.00 | 0.00 | 63 | 1033.2 |
| 20260504035646 | 44 | 125 | 0.0 | 0.0 | 0.00 | 0.00 | 0.00 | 64 | 1033.4 |
| 20260504035143 | 44 | 125 | 0.0 | 0.0 | 0.00 | 0.00 | 0.00 | 63 | 1033.4 |
| 20260504034641 | 44 | 125 | 0.0 | 0.0 | 0.00 | 0.00 | 0.00 | 64 | 1033.2 |
| 20260504034138 | 44 | 125 | 0.0 | 0.0 | 0.00 | 0.00 | 0.00 | 63 | 1033.2 |
| 20260504033635 | 44 | 126 | 1.0 | 1.0 | 0.00 | 0.00 | 0.00 | 63 | 1033.0 |
| 20260504033133 | 44 | 126 | 1.0 | 1.0 | 0.00 | 0.00 | 0.00 | 62 | 1033.0 |
| 20260504032629 | 44 | 213 | 0.0 | 0.0 | 0.00 | 0.00 | 0.00 | 61 | 1033.0 |
| 20260504032126 | 45 | 213 | 0.0 | 0.0 | 0.00 | 0.00 | 0.00 | 61 | 1032.9 |
| 20260504031624 | 45 | 211 | 0.0 | 0.0 | 0.00 | 0.00 | 0.00 | 61 | 1032.9 |
| 20260504031120 | 45 | 212 | 0.0 | 0.0 | 0.00 | 0.00 | 0.00 | 61 | 1033.0 |
| 20260504030617 | 44 | 211 | 0.0 | 1.0 | 0.00 | 0.00 | 0.00 | 60 | 1032.9 |
| 20260504030113 | 44 | 211 | 1.0 | 2.0 | 0.00 | 0.00 | 0.00 | 59 | 1033.0 |
| 20260504025610 | 44 | 224 | 1.0 | 2.0 | 0.00 | 0.00 | 0.00 | 58 | 1033.2 |
| 20260504025107 | 45 | 207 | 2.0 | 2.0 | 0.00 | 0.00 | 0.00 | 58 | 1033.3 |
| 20260504024604 | 45 | 194 | 0.0 | 1.0 | 0.00 | 0.00 | 0.00 | 57 | 1033.0 |
| 20260504024101 | 45 | 184 | 1.0 | 1.0 | 0.00 | 0.00 | 0.00 | 57 | 1033.1 |
| 20260504023557 | 46 | 186 | 0.0 | 1.0 | 0.00 | 0.00 | 0.00 | 56 | 1033.1 |
| 20260504023053 | 46 | 186 | 0.0 | 1.0 | 0.00 | 0.00 | 0.00 | 54 | 1033.3 |
| 20260504022550 | 46 | 186 | 0.0 | 0.0 | 0.00 | 0.00 | 0.00 | 53 | 1033.4 |
| 20260504022046 | 47 | 186 | 0.0 | 0.0 | 0.00 | 0.00 | 0.00 | 52 | 1033.2 |
| 20260504021543 | 47 | 186 | 1.0 | 1.0 | 0.00 | 0.00 | 0.00 | 51 | 1033.1 |
| 20260504021040 | 47 | 195 | 1.0 | 1.0 | 0.00 | 0.00 | 0.00 | 51 | 1033.1 |
| 20260504020537 | 47 | 195 | 0.0 | 1.0 | 0.00 | 0.00 | 0.00 | 51 | 1033.1 |
| 20260504020034 | 48 | 192 | 1.0 | 1.0 | 0.00 | 0.00 | 0.00 | 49 | 1032.9 |
| 20260504015530 | 48 | 189 | 1.0 | 2.0 | 0.00 | 0.00 | 0.00 | 48 | 1032.8 |
| 20260504015026 | 48 | 214 | 1.0 | 2.0 | 0.00 | 0.00 | 0.00 | 47 | 1032.8 |
| 20260504014522 | 49 | 221 | 2.0 | 2.0 | 0.00 | 0.00 | 0.00 | 46 | 1032.8 |
| 20260504014020 | 50 | 217 | 2.0 | 2.0 | 0.00 | 0.00 | 0.00 | 45 | 1032.8 |
| 20260504013518 | 51 | 222 | 1.0 | 2.0 | 0.00 | 0.00 | 0.00 | 43 | 1032.5 |
| 20260504013014 | 51 | 230 | 0.0 | 0.0 | 0.00 | 0.00 | 0.00 | 40 | 1032.7 |
| 20260504012512 | 51 | 230 | 0.0 | 1.0 | 0.00 | 0.00 | 0.00 | 42 | 1032.8 |
| 20260504012010 | 51 | 230 | 1.0 | 1.0 | 0.00 | 0.00 | 0.00 | 43 | 1032.5 |
| 20260504011506 | 51 | 230 | 1.0 | 1.0 | 0.00 | 0.00 | 0.00 | 40 | 1032.3 |
| 20260504011001 | 51 | 234 | 1.0 | 1.0 | 0.00 | 0.00 | 0.00 | 38 | 1032.3 |
| 20260504010458 | 52 | 276 | 1.0 | 1.0 | 0.00 | 0.00 | 0.00 | 36 | 1032.3 |
| 20260504005953 | 52 | 277 | 0.0 | 0.0 | 0.00 | 0.00 | 0.00 | 37 | 1032.0 |
| 20260504005451 | 52 | 277 | 0.0 | 1.0 | 0.00 | 0.00 | 0.00 | 36 | 1032.1 |
| 20260504004948 | 53 | 277 | 0.0 | 0.0 | 0.00 | 0.00 | 0.00 | 35 | 1032.4 |
| 20260504004446 | 53 | 277 | 0.0 | 0.0 | 0.00 | 0.00 | 0.00 | 35 | 1032.3 |
| 20260504003943 | 53 | 277 | 0.0 | 1.0 | 0.00 | 0.00 | 0.00 | 34 | 1032.0 |
| 20260504003439 | 53 | 277 | 0.0 | 0.0 | 0.00 | 0.00 | 0.00 | 34 | 1032.0 |
| 20260504002935 | 53 | 277 | 0.0 | 0.0 | 0.00 | 0.00 | 0.00 | 33 | 1031.9 |
| 20260504002433 | 54 | 277 | 0.0 | 0.0 | 0.00 | 0.00 | 0.00 | 34 | 1032.1 |
| 20260504001930 | 55 | 277 | 0.0 | 0.0 | 0.00 | 0.00 | 0.00 | 33 | 1031.9 |
| 20260504001427 | 55 | 277 | 0.0 | 1.0 | 0.00 | 0.00 | 0.00 | 32 | 1031.9 |
| 20260504000924 | 56 | 277 | 0.0 | 1.0 | 0.00 | 0.00 | 0.00 | 32 | 1031.7 |
| 20260504000423 | 56 | 312 | 0.0 | 1.0 | 0.00 | 0.00 | 0.00 | 31 | 1031.8 |
| 20260503235918 | 57 | 263 | 0.0 | 0.0 | 0.00 | 0.00 | 0.00 | 30 | 1031.7 |
| 20260503235416 | 57 | 317 | 2.0 | 3.0 | 0.00 | 0.00 | 0.00 | 29 | 1031.9 |
| 20260503234914 | 58 | 297 | 0.0 | 1.0 | 0.00 | 0.00 | 0.00 | 28 | 1031.8 |
| 20260503234411 | 60 | 254 | 0.0 | 0.0 | 0.00 | 0.00 | 0.00 | 29 | 1032.0 |
| 20260503233909 | 60 | 254 | 0.0 | 0.0 | 0.00 | 0.00 | 0.00 | 27 | 1031.9 |
| 20260503233405 | 61 | 256 | 1.0 | 1.0 | 0.00 | 0.00 | 0.00 | 26 | 1031.9 |
| 20260503232901 | 61 | 194 | 0.0 | 2.0 | 0.00 | 0.00 | 0.00 | 26 | 1032.1 |
| 20260503232359 | 61 | 245 | 0.0 | 1.0 | 0.00 | 0.00 | 0.00 | 27 | 1032.0 |
| 20260503231856 | 61 | 325 | 2.0 | 6.0 | 0.00 | 0.00 | 0.00 | 25 | 1032.1 |
| 20260503231353 | 61 | 317 | 2.0 | 8.0 | 0.00 | 0.00 | 0.00 | 26 | 1032.1 |
| 20260503230849 | 61 | 267 | 2.0 | 7.0 | 0.00 | 0.00 | 0.00 | 26 | 1032.1 |
| 20260503230346 | 62 | 288 | 2.0 | 4.0 | 0.00 | 0.00 | 0.00 | 25 | 1032.1 |
| 20260503225844 | 62 | 254 | 2.0 | 8.0 | 0.00 | 0.00 | 0.00 | 27 | 1031.9 |
| 20260503225339 | 62 | 268 | 2.0 | 11.0 | 0.00 | 0.00 | 0.00 | 27 | 1032.0 |
| 20260503224836 | 63 | 281 | 0.0 | 4.0 | 0.00 | 0.00 | 0.00 | 30 | 1031.9 |
| 20260503224333 | 63 | 251 | 1.0 | 3.0 | 0.00 | 0.00 | 0.00 | 27 | 1032.1 |
| 20260503223831 | 63 | 281 | 1.0 | 6.0 | 0.00 | 0.00 | 0.00 | 29 | 1032.2 |
| 20260503223328 | 63 | 299 | 1.0 | 4.0 | 0.00 | 0.00 | 0.00 | 28 | 1032.0 |
| 20260503222824 | 63 | 230 | 2.0 | 3.0 | 0.00 | 0.00 | 0.00 | 28 | 1032.0 |
| 20260503222323 | 64 | 298 | 1.0 | 9.0 | 0.00 | 0.00 | 0.00 | 27 | 1032.0 |
| 20260503221820 | 63 | 252 | 0.0 | 2.0 | 0.00 | 0.00 | 0.00 | 27 | 1032.0 |
| 20260503221319 | 62 | 232 | 1.0 | 2.0 | 0.00 | 0.00 | 0.00 | 29 | 1032.0 |
| 20260503220814 | 62 | 324 | 1.0 | 2.0 | 0.00 | 0.00 | 0.00 | 27 | 1031.9 |
| 20260503220312 | 61 | 258 | 2.0 | 3.0 | 0.00 | 0.00 | 0.00 | 27 | 1032.0 |
| 20260503215808 | 62 | 213 | 2.0 | 4.0 | 0.00 | 0.00 | 0.00 | 27 | 1032.1 |
| 20260503215305 | 62 | 216 | 1.0 | 3.0 | 0.00 | 0.00 | 0.00 | 26 | 1032.2 |
| 20260503214803 | 62 | 179 | 1.0 | 3.0 | 0.00 | 0.00 | 0.00 | 25 | 1032.2 |
| 20260503214300 | 61 | 266 | 1.0 | 3.0 | 0.00 | 0.00 | 0.00 | 25 | 1032.2 |
| 20260503213758 | 61 | 345 | 2.0 | 7.0 | 0.00 | 0.00 | 0.00 | 26 | 1032.3 |
| 20260503213255 | 61 | 228 | 4.0 | 9.0 | 0.00 | 0.00 | 0.00 | 26 | 1032.3 |
| 20260503212752 | 62 | 245 | 2.0 | 3.0 | 0.00 | 0.00 | 0.00 | 27 | 1032.3 |
| 20260503212250 | 61 | 230 | 2.0 | 6.0 | 0.00 | 0.00 | 0.00 | 28 | 1032.3 |
| 20260503211747 | 62 | 247 | 3.0 | 4.0 | 0.00 | 0.00 | 0.00 | 26 | 1032.2 |
| 20260503211243 | 62 | 178 | 2.0 | 8.0 | 0.00 | 0.00 | 0.00 | 28 | 1032.3 |
| 20260503210738 | 62 | 267 | 2.0 | 6.0 | 0.00 | 0.00 | 0.00 | 29 | 1032.3 |
| 20260503210236 | 61 | 224 | 5.0 | 7.0 | 0.00 | 0.00 | 0.00 | 28 | 1032.4 |
| 20260503205731 | 61 | 221 | 7.0 | 9.0 | 0.00 | 0.00 | 0.00 | 28 | 1032.2 |
| 20260503205228 | 61 | 253 | 2.0 | 3.0 | 0.00 | 0.00 | 0.00 | 31 | 1032.4 |
| 20260503204724 | 61 | 237 | 4.0 | 8.0 | 0.00 | 0.00 | 0.00 | 29 | 1032.5 |
| 20260503204222 | 62 | 247 | 5.0 | 7.0 | 0.00 | 0.00 | 0.00 | 27 | 1032.4 |
| 20260503203719 | 61 | 218 | 7.0 | 10.0 | 0.00 | 0.00 | 0.00 | 26 | 1032.5 |
| 20260503203217 | 62 | 283 | 1.0 | 4.0 | 0.00 | 0.00 | 0.00 | 28 | 1032.5 |
| 20260503202714 | 62 | 258 | 1.0 | 7.0 | 0.00 | 0.00 | 0.00 | 25 | 1032.9 |
| 20260503202212 | 63 | 265 | 3.0 | 7.0 | 0.00 | 0.00 | 0.00 | 27 | 1032.9 |
| 20260503201709 | 62 | 273 | 2.0 | 4.0 | 0.00 | 0.00 | 0.00 | 30 | 1032.9 |
| 20260503201207 | 60 | 306 | 4.0 | 7.0 | 0.00 | 0.00 | 0.00 | 28 | 1033.0 |
| 20260503200703 | 59 | 348 | 1.0 | 3.0 | 0.00 | 0.00 | 0.00 | 28 | 1033.1 |
| 20260503200159 | 60 | 318 | 4.0 | 6.0 | 0.00 | 0.00 | 0.00 | 27 | 1033.1 |
| 20260503195656 | 62 | 286 | 2.0 | 4.0 | 0.00 | 0.00 | 0.00 | 30 | 1033.3 |
| 20260503195153 | 61 | 210 | 1.0 | 2.0 | 0.00 | 0.00 | 0.00 | 26 | 1033.3 |
| 20260503194650 | 60 | 238 | 1.0 | 2.0 | 0.00 | 0.00 | 0.00 | 31 | 1033.5 |
| 20260503194145 | 60 | 331 | 7.0 | 10.0 | 0.00 | 0.00 | 0.00 | 26 | 1033.6 |
| 20260503193642 | 60 | 330 | 4.0 | 9.0 | 0.00 | 0.00 | 0.00 | 31 | 1033.8 |
| 20260503193138 | 60 | 199 | 4.0 | 8.0 | 0.00 | 0.00 | 0.00 | 28 | 1033.8 |
| 20260503192634 | 60 | 36 | 3.0 | 3.0 | 0.00 | 0.00 | 0.00 | 26 | 1033.8 |
| 20260503192129 | 59 | 344 | 3.0 | 6.0 | 0.00 | 0.00 | 0.00 | 28 | 1033.9 |
| 20260503191626 | 61 | 330 | 8.0 | 9.0 | 0.00 | 0.00 | 0.00 | 27 | 1034.3 |
| 20260503191124 | 60 | 238 | 2.0 | 6.0 | 0.00 | 0.00 | 0.00 | 31 | 1034.2 |
| 20260503190620 | 60 | 270 | 4.0 | 8.0 | 0.00 | 0.00 | 0.00 | 27 | 1034.2 |
| 20260503190117 | 59 | 130 | 0.0 | 2.0 | 0.00 | 0.00 | 0.00 | 29 | 1034.2 |
| 20260503185614 | 58 | 183 | 6.0 | 15.0 | 0.00 | 0.00 | 0.00 | 28 | 1034.2 |
| 20260503185114 | 58 | 352 | 0.0 | 2.0 | 0.00 | 0.00 | 0.00 | 30 | 1034.3 |
| 20260503184609 | 59 | 53 | 4.0 | 4.0 | 0.00 | 0.00 | 0.00 | 31 | 1034.3 |
| 20260503184106 | 58 | 24 | 4.0 | 4.0 | 0.00 | 0.00 | 0.00 | 30 | 1034.5 |
| 20260503183603 | 57 | 100 | 2.0 | 7.0 | 0.00 | 0.00 | 0.00 | 29 | 1034.5 |
| 20260503183100 | 56 | 338 | 3.0 | 6.0 | 0.00 | 0.00 | 0.00 | 33 | 1034.6 |
| 20260503182559 | 57 | 320 | 3.0 | 7.0 | 0.00 | 0.00 | 0.00 | 30 | 1034.7 |
| 20260503182056 | 58 | 281 | 3.0 | 6.0 | 0.00 | 0.00 | 0.00 | 29 | 1034.9 |
| 20260503181553 | 57 | 282 | 4.0 | 7.0 | 0.00 | 0.00 | 0.00 | 30 | 1034.9 |
| 20260503181049 | 56 | 224 | 3.0 | 8.0 | 0.00 | 0.00 | 0.00 | 35 | 1034.9 |
| 20260503180547 | 56 | 339 | 8.0 | 14.0 | 0.00 | 0.00 | 0.00 | 29 | 1034.9 |
| 20260503180044 | 57 | 5 | 6.0 | 9.0 | 0.00 | 0.00 | 0.00 | 31 | 1035.0 |
| 20260503175541 | 58 | 178 | 1.0 | 2.0 | 0.00 | 0.00 | 0.00 | 28 | 1035.0 |
| 20260503175038 | 57 | 247 | 1.0 | 6.0 | 0.00 | 0.00 | 0.00 | 27 | 1035.2 |
| 20260503174536 | 57 | 273 | 3.0 | 8.0 | 0.00 | 0.00 | 0.00 | 30 | 1035.1 |
| 20260503174032 | 56 | 295 | 3.0 | 10.0 | 0.00 | 0.00 | 0.00 | 29 | 1035.2 |
| 20260503173527 | 56 | 285 | 2.0 | 4.0 | 0.00 | 0.00 | 0.00 | 29 | 1035.3 |
| 20260503173023 | 56 | 298 | 4.0 | 8.0 | 0.00 | 0.00 | 0.00 | 33 | 1035.4 |
| 20260503172521 | 55 | 242 | 3.0 | 6.0 | 0.00 | 0.00 | 0.00 | 35 | 1035.6 |
| 20260503172018 | 55 | 13 | 4.0 | 9.0 | 0.00 | 0.00 | 0.00 | 32 | 1035.5 |
| 20260503171514 | 56 | 268 | 2.0 | 8.0 | 0.00 | 0.00 | 0.00 | 31 | 1035.2 |
| 20260503171012 | 56 | 333 | 3.0 | 7.0 | 0.00 | 0.00 | 0.00 | 30 | 1035.3 |
| 20260503170508 | 56 | 300 | 4.0 | 8.0 | 0.00 | 0.00 | 0.00 | 32 | 1035.6 |
| 20260503150900 | 49 | 4 | 5.0 | 7.0 | 0.00 | 0.00 | 0.00 | 41 | 1036.5 |
| 20260503150356 | 49 | 332 | 6.0 | 10.0 | 0.00 | 0.00 | 0.00 | 40 | 1036.6 |
| 20260503131250 | 45 | 299 | 2.0 | 6.0 | 0.00 | 0.00 | 0.00 | 60 | 1036.7 |
| 20260503130748 | 45 | 304 | 3.0 | 9.0 | 0.00 | 0.00 | 0.00 | 62 | 1036.7 |
| 20260503130245 | 45 | 263 | 1.0 | 4.0 | 0.00 | 0.00 | 0.00 | 66 | 1036.6 |
| 20260503120211 | 42 | 202 | 0.0 | 1.0 | 0.00 | 0.00 | 0.00 | 75 | 1036.1 |
| 20260503110638 | 37 | 222 | 0.0 | 0.0 | 0.00 | 0.00 | 0.00 | 90 | 1035.4 |
| 20260503110136 | 35 | 222 | 0.0 | 0.0 | 0.00 | 0.00 | 0.00 | 90 | 1035.3 |
| 20260503081452 | 37 | 272 | 0.0 | 1.0 | 0.00 | 0.00 | 0.00 | 80 | 1033.6 |
| 20260503080949 | 36 | 321 | 1.0 | 3.0 | 0.00 | 0.00 | 0.00 | 81 | 1033.6 |
| 20260503080445 | 36 | 314 | 0.0 | 2.0 | 0.00 | 0.00 | 0.00 | 81 | 1033.4 |
| 20260503072921 | 36 | 261 | 1.0 | 1.0 | 0.00 | 0.00 | 0.00 | 82 | 1033.2 |
| 20260503072419 | 36 | 280 | 0.0 | 0.0 | 0.00 | 0.00 | 0.00 | 82 | 1033.1 |
| 20260503071910 | 36 | 288 | 0.0 | 1.0 | 0.00 | 0.00 | 0.00 | 82 | 1033.2 |
| 20260503071407 | 36 | 316 | 0.0 | 0.0 | 0.00 | 0.00 | 0.00 | 82 | 1033.2 |
| 20260503070902 | 36 | 220 | 0.0 | 1.0 | 0.00 | 0.00 | 0.00 | 82 | 1033.1 |
| 20260503070400 | 36 | 217 | 0.0 | 1.0 | 0.00 | 0.00 | 0.00 | 83 | 1033.1 |
| 20260503060326 | 35 | 211 | 1.0 | 1.0 | 0.00 | 0.00 | 0.00 | 87 | 1032.9 |